Zurück zum Katalog

STARLINK-31854

AktivKommunikationVLEO
NORAD 59671·PAYLOAD·🇺🇸 United States

Gestartet May 6, 2024 von Cape Canaveral Space Force Station

Loading…

Nächste Überflüge (nächste 24 Stunden)

TLE

AktuellSource: CelesTrak SupGP

Epoche: Sep 15, 2026, 03:06 UTC

1 59671C 24084T   26258.12965278  .00008431  00000+0  30529-3 0  2584
2 59671  43.0046  18.9111 0001904 270.8864  42.6038 15.27582800    19

Verfolge STARLINK-31854 in Echtzeit mit AllMySat

Download on the App Store